Weather History for Paris Le Bourget, France

Change the Weather History Date:

Wednesday, March 6, 2013

  Actual Average Record
Temperature  
Mean Temperature 53 °F -  
Max Temperature 60 °F 54 °F 60 °F (2013)
Min Temperature 46 °F 40 °F 28 °F (2005)
Degree Days  
Heating Degree Days 12    
Growing Degree Days 3 (Base 50)    
Moisture  
Dew Point 40 °F    
Average Humidity 64    
Maximum Humidity 82    
Minimum Humidity 45    
Precipitation  
Precipitation 0.00 in 0.07 in - ()
Sea Level Pressure  
Sea Level Pressure 29.54 in    
Wind  
Wind Speed 4 mph ()    
Max Wind Speed 7 mph    
Max Gust Speed -    
Visibility 6.2 miles    
Events Rain    
Averages and records for this station are not official NWS values.
T = Trace of Precipitation, MM = Missing Value Source: Averaged Metar Reports

Daily Weather History Graph

Daily Weather History Graph

Search for Another Location

Airport:

Trip Planner

Search our weather history database for the weather conditions in past years. The results will help you decide how hot, cold, wet, or windy it might be!

Date:

Astronomy

Mar. 06, 2013 Rise Set
Actual Time 7:22 AM CET 6:41 PM CET
Civil Twilight 6:50 AM CET 7:13 PM CET
Nautical Twilight 6:14 AM CET 7:49 PM CET
Astronomical Twilight 5:37 AM CET 8:27 PM CET
Moon 3:39 AM CET (3/6) 12:45 PM CET (3/6)
Length of Visible Light 12h 22m
Length of Day
11h 19m
Waning Crescent, 33% of the Moon is Illuminated
Mar 6
Waning Crescent
Mar 11
New
Mar 19
First Quarter
Mar 27
Full
Apr 3
Last Quarter

Hourly Weather History & Observations

Time (CET) Temp. Windchill Dew Point Humidity Pressure Visibility Wind Dir Wind Speed Gust Speed Precip Events Conditions
12:00 AM 46.4 °F 42.9 °F 37.4 °F 71% 29.59 in 6.2 mi East 6.9 mph - N/A   Unknown
12:30 AM 46.4 °F - 37.4 °F 71% 29.59 in 6.2 mi Variable 2.3 mph - N/A   Unknown
1:00 AM 46.4 °F 45.2 °F 37.4 °F 71% 29.59 in 6.2 mi ENE 3.5 mph - N/A   Unknown
1:30 AM 46.4 °F 45.2 °F 37.4 °F 71% 29.59 in 6.2 mi ENE 3.5 mph - N/A   Unknown
2:00 AM 46.4 °F 44.3 °F 37.4 °F 71% 29.59 in 6.2 mi East 4.6 mph - N/A   Unknown
2:30 AM 46.4 °F 43.5 °F 37.4 °F 71% 29.59 in 6.2 mi ENE 5.8 mph - N/A   Unknown
3:00 AM 46.4 °F 44.3 °F 37.4 °F 71% 29.59 in 6.2 mi NE 4.6 mph - N/A   Unknown
3:30 AM 46.4 °F 44.3 °F 37.4 °F 71% 29.59 in 6.2 mi NE 4.6 mph - N/A   Unknown
4:00 AM 46.4 °F 42.9 °F 37.4 °F 71% 29.56 in 6.2 mi ENE 6.9 mph - N/A   Unknown
4:30 AM 46.4 °F 44.3 °F 37.4 °F 71% 29.56 in 6.2 mi East 4.6 mph - N/A   Unknown
5:00 AM 46.4 °F 45.2 °F 37.4 °F 71% 29.56 in 6.2 mi ENE 3.5 mph - N/A   Unknown
5:30 AM 46.4 °F 43.5 °F 37.4 °F 71% 29.56 in 6.2 mi NE 5.8 mph - N/A   Unknown
6:00 AM 46.4 °F 43.5 °F 39.2 °F 76% 29.56 in 6.2 mi East 5.8 mph - N/A   Unknown
6:30 AM 46.4 °F 43.5 °F 37.4 °F 71% 29.56 in 6.2 mi East 5.8 mph - N/A   Unknown
7:00 AM 46.4 °F 44.3 °F 37.4 °F 71% 29.56 in 6.2 mi ENE 4.6 mph - N/A   Unknown
7:30 AM 46.4 °F 44.3 °F 37.4 °F 71% 29.56 in 6.2 mi ENE 4.6 mph - N/A   Unknown
8:00 AM 46.4 °F 44.3 °F 37.4 °F 71% 29.56 in 6.2 mi NE 4.6 mph - N/A   Unknown
8:30 AM 48.2 °F - 39.2 °F 71% 29.56 in 6.2 mi ENE 5.8 mph - N/A   Unknown
9:00 AM 48.2 °F - 39.2 °F 71% 29.56 in 6.2 mi NE 5.8 mph - N/A   Unknown
9:30 AM 50.0 °F - 39.2 °F 66% 29.56 in 6.2 mi NE 4.6 mph - N/A   Unknown
10:00 AM 50.0 °F - 39.2 °F 66% 29.56 in 6.2 mi NE 3.5 mph - N/A   Unknown
10:30 AM 51.8 °F - 37.4 °F 58% 29.56 in 6.2 mi NE 3.5 mph - N/A   Unknown
11:00 AM 53.6 °F - 39.2 °F 58% 29.56 in 6.2 mi NNE 4.6 mph - N/A   Unknown
11:30 AM 55.4 °F - 39.2 °F 54% 29.53 in 6.2 mi NNE 4.6 mph - N/A   Unknown
12:00 PM 55.4 °F - 37.4 °F 51% 29.53 in 6.2 mi Variable 2.3 mph - N/A   Unknown
12:30 PM 57.2 °F - 37.4 °F 48% 29.53 in 6.2 mi Variable 3.5 mph - N/A   Unknown
1:00 PM 59.0 °F - 39.2 °F 48% 29.53 in 6.2 mi East 5.8 mph - N/A   Unknown
1:30 PM 59.0 °F - 39.2 °F 48% 29.53 in 6.2 mi East 4.6 mph - N/A   Unknown
2:00 PM 59.0 °F - 39.2 °F 48% 29.53 in 6.2 mi East 4.6 mph - N/A   Unknown
2:30 PM 59.0 °F - 39.2 °F 48% 29.50 in 6.2 mi East 4.6 mph - N/A   Unknown
3:00 PM 59.0 °F - 41.0 °F 51% 29.50 in 6.2 mi NE 5.8 mph - N/A   Unknown
3:30 PM 60.8 °F - 41.0 °F 48% 29.50 in 6.2 mi ENE 5.8 mph - N/A   Unknown
4:00 PM 60.8 °F - 41.0 °F 48% 29.50 in 6.2 mi ENE 3.5 mph - N/A   Unknown
4:30 PM 60.8 °F - 41.0 °F 48% 29.47 in 6.2 mi Variable 2.3 mph - N/A   Unknown
5:00 PM 60.8 °F - 39.2 °F 45% 29.47 in 6.2 mi ENE 4.6 mph - N/A   Unknown
5:30 PM 59.0 °F - 41.0 °F 51% 29.47 in 6.2 mi ENE 5.8 mph - N/A   Unknown
6:00 PM 57.2 °F - 41.0 °F 55% 29.50 in 6.2 mi East 5.8 mph - N/A   Unknown
6:30 PM 55.4 °F - 41.0 °F 58% 29.50 in 6.2 mi ENE 5.8 mph - N/A   Unknown
7:00 PM 55.4 °F - 42.8 °F 63% 29.50 in 6.2 mi ENE 5.8 mph - N/A   Unknown
7:30 PM 53.6 °F - 44.6 °F 72% 29.50 in 6.2 mi ESE 3.5 mph - N/A Rain Light Rain
8:00 PM 55.4 °F - 44.6 °F 67% 29.50 in 6.2 mi South 6.9 mph - N/A   Unknown
8:30 PM 53.6 °F - 44.6 °F 72% 29.50 in 6.2 mi SSE 4.6 mph - N/A Rain Light Rain
9:00 PM 53.6 °F - 44.6 °F 72% 29.50 in 6.2 mi SSE 3.5 mph - N/A Rain Light Rain
9:30 PM 53.6 °F - 44.6 °F 72% 29.50 in 6.2 mi South 3.5 mph - N/A   Unknown
10:00 PM 53.6 °F - 44.6 °F 72% 29.50 in 6.2 mi South 3.5 mph - N/A   Unknown
10:30 PM 53.6 °F - 46.4 °F 77% 29.50 in 6.2 mi South 2.3 mph - N/A   Unknown
11:00 PM 51.8 °F - 44.6 °F 76% 29.50 in 6.2 mi Calm Calm - N/A   Mostly Cloudy
11:30 PM 51.8 °F - 46.4 °F 82% 29.50 in 6.2 mi SE 1.2 mph - N/A   Mostly Cloudy